Weather History for Cross City, FL

Change the Weather History Date:

Friday, January 23, 2015

  Actual Average Record
Temperature  
Mean Temperature 67 °F 54 °F  
Max Temperature 71 °F 67 °F 79 °F (1999)
Min Temperature 63 °F 41 °F 23 °F (2011)
Degree Days  
Heating Degree Days 0 11  
Month to date heating degree days 207 286  
Since 1 July heating degree days 701 791  
Cooling Degree Days 2 0  
Month to date cooling degree days 16 0  
Year to date cooling degree days 16 0  
Growing Degree Days 17 (Base 50)    
Moisture  
Dew Point 63 °F    
Average Humidity 87    
Maximum Humidity 100    
Minimum Humidity 76    
Precipitation  
Precipitation 1.26 in 0.14 in 2.78 in (1999)
Month to date precipitation 2.85 3.04  
Year to date precipitation 2.85 3.04  
Sea Level Pressure  
Sea Level Pressure 29.94 in    
Wind  
Wind Speed 11 mph (South)    
Max Wind Speed 22 mph    
Max Gust Speed 30 mph    
T = Trace of Precipitation, MM = Missing Value Source: NWS Daily Summary

Daily Weather History Graph

Daily Weather History Graph

Search for Another Location

Airport:

Trip Planner

Search our weather history database for the weather conditions in past years. The results will help you decide how hot, cold, wet, or windy it might be!

Date:

Astronomy

Jan. 23, 2015 Rise Set
Actual Time 7:26 AM EST 6:02 PM EST
Civil Twilight 7:01 AM EST 6:27 PM EST
Nautical Twilight 6:32 AM EST 6:56 PM EST
Astronomical Twilight 6:03 AM EST 7:25 PM EST
Moon 9:35 AM EST (1/23) 9:50 PM EST (1/23)
Length of Visible Light 11h 26m
Length of Day
10h 35m
Waxing Crescent, 14% of the Moon is Illuminated
Jan 23
Waxing Crescent
Jan 26
First Quarter
Feb 3
Full
Feb 11
Last Quarter
Feb 18
New

Hourly Weather History & Observations

Time (EST) Temp. Dew Point Humidity Pressure Visibility Wind Dir Wind Speed Gust Speed Precip Events Conditions
12:53 AM 64.0 °F 57.0 °F 78% 30.09 in - Variable 4.6 mph - N/A   Unknown
1:53 AM 63.0 °F 55.9 °F 78% 30.08 in - ESE 5.8 mph - N/A   Unknown
2:53 AM 63.0 °F 57.0 °F 81% 30.06 in - ESE 6.9 mph - 0.01 in   Unknown
3:53 AM 63.0 °F 57.0 °F 81% 30.04 in - Variable 5.8 mph - N/A   Unknown
4:53 AM 66.0 °F 59.0 °F 78% 30.02 in - SSE 8.1 mph - N/A   Unknown
5:53 AM 64.9 °F 59.0 °F 81% 30.01 in - Variable 5.8 mph - N/A   Unknown
6:53 AM 66.0 °F 60.1 °F 81% 30.01 in - Variable 5.8 mph - N/A   Unknown
7:53 AM 66.9 °F 61.0 °F 81% 30.01 in - SSE 8.1 mph - N/A   Unknown
8:53 AM 68.0 °F 61.0 °F 78% 30.00 in - SSE 9.2 mph - N/A   Unknown
9:53 AM 70.0 °F 62.1 °F 76% 29.97 in - SSE 12.7 mph 18.4 mph N/A   Unknown
10:53 AM 70.0 °F 63.0 °F 78% 29.96 in - South 13.8 mph 24.2 mph N/A   Unknown
11:53 AM 68.0 °F 64.0 °F 87% 29.94 in - South 13.8 mph 21.9 mph 0.02 in   Unknown
12:53 PM 68.0 °F 64.9 °F 90% 29.92 in - South 12.7 mph 19.6 mph 0.06 in   Unknown
1:53 PM 69.1 °F 66.9 °F 93% 29.88 in - South 16.1 mph 24.2 mph 0.21 in   Unknown
2:53 PM 69.1 °F 68.0 °F 96% 29.91 in - South 15.0 mph 24.2 mph 0.40 in   Unknown
3:53 PM 68.0 °F 66.9 °F 96% 29.89 in - South 16.1 mph 25.3 mph 0.24 in   Unknown
4:53 PM 69.1 °F 68.0 °F 96% 29.88 in - South 17.3 mph 27.6 mph 0.09 in   Unknown
5:53 PM 68.0 °F 66.9 °F 96% 29.86 in - South 11.5 mph - 0.03 in   Unknown
6:53 PM 66.0 °F 66.0 °F 100% 29.86 in - South 9.2 mph - 0.01 in   Unknown
7:53 PM 66.9 °F 66.9 °F 100% 29.87 in - South 8.1 mph - N/A   Unknown
8:53 PM 66.9 °F 66.0 °F 97% 29.83 in - South 8.1 mph - 0.02 in   Unknown
9:53 PM 68.0 °F 66.9 °F 96% 29.84 in - South 12.7 mph - 0.03 in   Unknown
10:53 PM 68.0 °F 66.9 °F 96% 29.82 in - South 10.4 mph 20.7 mph 0.11 in   Unknown
11:53 PM 69.1 °F 68.0 °F 96% 29.79 in - South 19.6 mph 25.3 mph 0.03 in   Unknown